Regional Weather Roundup
Issued by NWS New Orleans/Baton Rouge, LA

Home | Current Version | Previous Version | Text Only | Print | Product List | Glossary On
Versions: 1 2 3 4 5 6 7 8 9 10 11 12 13 14 15 16 17 18 19 20 21 22 23 24 25 26 27 28 29 30 31 32 33 34 35 36 37 38 39 40 41 42 43 44 45 46 47 48 49 50
388
ASUS44 KLIX 280105
RWRLIX
NEW ORLEANS REGIONAL WEATHER ROUNDUP
NATIONAL WEATHER SERVICE NEW ORLEANS LA
700 PM CST THU NOV 27 2014

NOTE: "FAIR" INDICATES FEW OR NO CLOUDS BELOW 12,000 FEET WITH NO
      SIGNIFICANT WEATHER AND/OR OBSTRUCTIONS TO VISIBILITY.
      SKY/WX - SKY CONDITION AND SIGNIFICANT WEATHER.
      TMP - AIR TEMPERATURE.     DP    - DEWPOINT TEMPERATURE.
      RH  - RELATIVE HUMIDITY.   PRES  - PRESSURE.
      HI  - HEAT INDEX.          WCI   - WIND CHILL INDEX.

*  THESE STATIONS ARE NOT NWS OR FAA STATIONS AND ARE NOT UNDER
   NWS QUALITY CONTROL.

LAZ038-040-048-061>063-065>067-069-280200-
SOUTHEAST LOUISIANA

CITY           SKY/WX    TMP DP  RH WIND       PRES   REMARKS
N.O. AUDUBON     N/A     55  36  48 MISG        N/A
N.O. INTL ARPT CLEAR     54  33  45 N13       30.43R
N.O. LAKEFRONT CLEAR     56  36  47 N18       30.44R
N.O. DOWNTOWN*   N/A     55  32  41 N7        30.44R
SLIDELL        CLEAR     44  36  73 CALM      30.43R
BATON ROUGE    CLEAR     48  30  49 CALM      30.44R
BOOTHVILLE     CLEAR     56  39  53 N9        30.42R
BELLE CHASSE   CLEAR     53  31  42 NE6       30.43R
BOGALUSA*        N/A     42  34  72 N7        30.46S
NEW ROADS*       N/A     46  34  63 CALM      30.45S
GONZALES*        N/A     47  38  70 N3        30.44R
HAMMOND*       CLEAR     45  32  61 CALM      30.46R
HOUMA*         CLEAR     48  34  58 N6        30.43R
PORT FOURCHON* CLEAR     55  41  58 N7        30.45S

$$

MSZ070-080>082-280200-
SOUTHERN MISSISSIPPI

CITY           SKY/WX    TMP DP  RH WIND       PRES   REMARKS
MCCOMB         CLEAR     47  29  49 N6        30.44S
GULFPORT       CLEAR     48  33  56 N5        30.43R
BILOXI         CLEAR     49  33  55 N2        30.43R
PASCAGOULA     CLEAR     46  32  58 NW3       30.43R
STENNIS ARPT*  CLEAR     43  34  70 MISG      30.44R

$$

COASTAL OBSERVATIONS
LAKE AND NEARSHORE STATIONS

STATION/POSITION TIME  TEMP    WIND        PRES    WAVE
                       AIR SEA DIR/SP/G            HT/PER
                 (UTC) (F)     (DEG/KT/KT) (MB)    (FT/S)
PASCAGOULA       0100   51     360/  6/  9 1029.7
WAVELAND YACHT   0100   52      10/ 10/ 11 1029.7
GRAND ISLE       0100   57 59   10/ 12/ 15 1030.3
SOUTHWEST PASS   0100   57                 1029.9
NEW CANAL        0100   56 55   20/ 13/ 16 1030.7
SHELL BEACH      0100   56 53   10/ 14/ 17 1030.1

OFFSHORE STATIONS

STATION/POSITION TIME  TEMP    WIND        PRES    WAVE
                       AIR SEA DIR/SP/G            HT/PER
                 (UTC) (F)     (DEG/KT/KT) (MB)    (FT/S)
64 S DAUPHIN ISL 0041   59 71   10/ 21/ 25 1029.5    4/ 5

$$




USA.gov is the U.S. government's official web portal to all federal, state and local government web resources and services.